Location: Unspecified
(51.5147°N, 7.4673°E)
Time: 04:15:23
(UTC+01:00)

Explorer 7 - Pass Details

Date: 20 February 2026
Orbit: 430 x 542 km, 50.2° (Epoch: 8 March)

Event Time Altitude Azimuth Distance (km) Brightness Sun altitude
Rises 16:36:38 0° 255° (WSW) 2,442 11.8 10.1°
Reaches altitude 10° 16:38:44 10° 253° (WSW) 1,588 11.2 9.9°
Maximum altitude 16:42:16 67° 171° (S) 509 7.0 9.4°
Drops below altitude 10° 16:45:59 10° 88° (E) 1,654 8.8 8.9°
Sets 16:48:12 0° 86° (E) 2,556 9.7 8.6°
